This is the latest recevied weather packets stored in our database for station/object F1ZVN-13. If no packets are shown the sender has not sent any weather packets the latest 10 day(s).
| Time | Temp. | Humidity | Pressure | Rain* | Wind** | Luminosity | Snow |
|---|---|---|---|---|---|---|---|
| 1777759184 | 4.44° C | 95% | 1008.6 hPa | 0 mm | 0 m/s | - | - |
| 1777759067 | 4.44° C | 95% | 1008.6 hPa | 0 mm | 0 m/s | - | - |
| 1777758942 | 4.44° C | 95% | 1008.4 hPa | 0 mm | 0 m/s | - | - |
| 1777758824 | 4.44° C | 95% | 1008.4 hPa | 0 mm | 0 m/s | - | - |
| 1777758699 | 4.44° C | 95% | 1008.6 hPa | 0 mm | 0 m/s | - | - |
| 1777758580 | 5° C | 93% | 1008.8 hPa | 0 mm | 0 m/s | - | - |
| 1777758513 | 5° C | 93% | 1008.7 hPa | 0 mm | 0 m/s | - | - |
| 1777758457 | 5° C | 93% | 1008.7 hPa | 0 mm | 0 m/s | - | - |
| 1777758337 | 5° C | 92% | 1008.8 hPa | 0 mm | 0 m/s | - | - |
| 1777758096 | 5° C | 92% | 1009.1 hPa | 0 mm | 0 m/s | - | - |
| 1777757977 | 5° C | 86% | 1008.9 hPa | 0 mm | 0 m/s | - | - |
| 1777757853 | 5° C | 91% | 1008.9 hPa | 0 mm | 0 m/s | - | - |
| 1777757764 | 5° C | 91% | 1008.9 hPa | 0 mm | 0 m/s | - | - |
| 1777757732 | 5° C | 91% | 1008.9 hPa | 0 mm | 0 m/s | - | - |
| 1777757612 | 5° C | 91% | 1009.1 hPa | 0 mm | 0 m/s | - | - |
| 1777757491 | 5° C | 91% | 1009.2 hPa | 0 mm | 0 m/s | - | - |
| 1777757371 | 5° C | 91% | 1008.9 hPa | 0 mm | 0 m/s | - | - |
| 1777757244 | 5° C | 92% | 1008.9 hPa | 0 mm | 0 m/s | - | - |
| 1777757164 | 5° C | 91% | 1009.3 hPa | 0 mm | 0 m/s | - | - |
| 1777757125 | 5° C | 91% | 1009.3 hPa | 0 mm | 0 m/s | - | - |
| 1777757002 | 5° C | 92% | 1009.3 hPa | 0 mm | 0 m/s | - | - |
| 1777756888 | 5° C | 92% | 1009.3 hPa | 0 mm | 0 m/s | - | - |
| 1777756640 | 5° C | 93% | 1009.5 hPa | 0 mm | 0 m/s | - | - |
| 1777756517 | 5° C | 92% | 1009.2 hPa | 0 mm | 0 m/s | - | - |
| 1777756397 | 5° C | 92% | 1009.3 hPa | 0 mm | 0 m/s | - | - |
* Rain latest hour (hover to see other rain measurements)
** Current wind speed in m/s (hover to see current wind gust speed)